SARP Airport Information

Runway Information
Runway 1 Length 7218 ft width 98 ft
Elevation 429 ft Threshold 0 ft Heading 359
Runway 19 Length 7218 ft Width 98 ft
Elevation 376 ft Threshold 0 ft Heading 179
Airport Frequencies
Type TWR Name TWR/APP Frequency 120.1 MHZ
Airport Navaids
Type VOR-DME Name Posadas Frequency 114900 KHZ
Airport Weather Information & NOTAM
ADDS - METARS form results

(0813 UTC 22 May 2018)
 
METAR text: SARP 220800Z 14005KT 9999 FEW008 11/08 Q1020
Conditions at: SARP (POSADAS AIRPORT , AR) observed 0800 UTC 22 May 2018
Temperature: 11.0°C (52°F)
Dewpoint: 8.0°C (46°F) [RH = 82%]
Pressure (altimeter): 30.12 inches Hg (1020.0 mb)
Winds: from the SE (140 degrees) at 6 MPH (5 knots; 2.6 m/s)
Visibility: 6 or more miles (10+ km)
Ceiling: at least 12,000 feet AGL
Clouds: few clouds at 800 feet AGL
Weather: no significant weather observed at this time